Location: Newark
(43.6486°N, 79.3853°W)
Time: 12:56:54
(UTC+00:00)

ISS - Pass Details

Date: 07 April 2020
Orbit: 417 x 419 km, 51.6° (Epoch: 03 June)

Event Time Altitude Azimuth Distance (km) Brightness Sun altitude
Rises 00:23:02 0° 297° (WNW) 2,366 2.2 -6.5°
Reaches altitude 10° 00:25:14 10° 288° (WNW) 1,498 0.9 -6.9°
Maximum altitude 00:28:21 35° 221° (SW) 688 -2.4 -7.4°
Drops below altitude 10° 00:31:26 10° 153° (SSE) 1,487 -1.4 -7.9°
Enters shadow 00:32:26 - 148° (SSE) 1,874 -0.9 -8.1°
